This is the latest recevied weather packets stored in our database for station/object KC0OOO-WX. If no packets are shown the sender has not sent any weather packets the latest 10 day(s).
| Time | Temp. | Humidity | Pressure | Rain* | Wind** | Luminosity | Snow |
|---|---|---|---|---|---|---|---|
| 1777169302 | 13.33° C | 28% | 1012.5 hPa | 0 mm | - | - | - |
| 1777168702 | 13.33° C | 26% | 1012.5 hPa | 0 mm | - | - | - |
| 1777168102 | 13.89° C | 25% | 1012.2 hPa | 0 mm | - | - | - |
| 1777167502 | 13.89° C | 23% | 1012.2 hPa | 0 mm | - | - | - |
| 1777166872 | 13.89° C | 22% | 1012.2 hPa | 0 mm | - | - | - |
| 1777166242 | 14.44° C | 22% | 1012.2 hPa | 0 mm | - | - | - |
| 1777165642 | 14.44° C | 22% | 1012.2 hPa | 0 mm | - | - | - |
| 1777165012 | 15° C | 22% | 1012.2 hPa | 0 mm | - | - | - |
| 1777164412 | 15° C | 22% | 1012.2 hPa | 0 mm | - | - | - |
| 1777163812 | 15.56° C | 21% | 1012.2 hPa | 0 mm | - | - | - |
| 1777163212 | 15.56° C | 21% | 1012.2 hPa | 0 mm | - | - | - |
| 1777162612 | 16.11° C | 21% | 1012.2 hPa | 0 mm | - | - | - |
| 1777162012 | 16.11° C | 21% | 1012.5 hPa | 0 mm | - | - | - |
| 1777161412 | 16.67° C | 20% | 1012.5 hPa | 0 mm | - | - | - |
| 1777160812 | 16.67° C | 20% | 1012.5 hPa | 0 mm | - | - | - |
| 1777160182 | 16.11° C | 21% | 1012.5 hPa | 0 mm | - | - | - |
| 1777159552 | 16.67° C | 20% | 1012.5 hPa | 0 mm | - | - | - |
| 1777158952 | 16.67° C | 22% | 1012.5 hPa | 0 mm | - | - | - |
| 1777158352 | 17.22° C | 19% | 1012.9 hPa | 0 mm | - | - | - |
| 1777157752 | 18.33° C | 19% | 1012.9 hPa | 0 mm | - | - | - |
| 1777157152 | 16.67° C | 21% | 1012.9 hPa | 0 mm | - | - | - |
| 1777156552 | 16.67° C | 19% | 1012.9 hPa | 0 mm | - | - | - |
| 1777155952 | 17.78° C | 18% | 1012.9 hPa | 0 mm | - | - | - |
| 1777155352 | 17.78° C | 20% | 1012.9 hPa | 0 mm | - | - | - |
| 1777154752 | 17.22° C | 19% | 1012.9 hPa | 0 mm | - | - | - |
* Rain latest hour (hover to see other rain measurements)
** Current wind speed in m/s (hover to see current wind gust speed)